Theta_e
308 308 308 307 306 308 308 308 308 308 309 310 309 310 309 308 308 307 308 307 307 308 310 311 313 318 320 324 333 340 343 344 345 343 344 344 343 342 341 340 334 335 337 337
308 308 308 308 308 308 309 309 309 309 310 309 309 310 309 308 308 308 308 308 307 307 308 310 316 318 321 325 331 337 340 342 344 343 343 343 342 342 341 337 339 339 339 339
309 309 309 310 310 310 310 310 310 310 311 310 310 310 309 309 310 310 309 308 308 308 308 308 317 321 323 328 334 337 340 342 343 342 344 345 345 343 340 337 337 336 334 334
309 309 311 310 310 310 312 310 312 313 312 312 310 313 311 309 309 309 309 307 307 306 307 308 310 320 323 326 331 337 342 345 346 345 345 346 344 342 343 341 340 340 337 340
310 311 310 310 310 314 315 315 315 312 310 309 310 309 311 309 309 308 309 309 307 308 308 309 308 314 322 324 325 330 338 342 345 347 347 346 343 342 342 342 342 341 340 338
309 312 311 310 314 316 316 316 315 308 307 312 313 311 313 312 309 309 309 310 312 310 309 307 309 312 317 323 323 324 334 337 337 337 337 339 339 340 340 340 339 339 339 338
312 312 316 316 317 316 316 316 317 317 314 317 312 310 313 311 310 309 310 312 310 309 308 309 305 306 314 320 323 323 325 323 322 320 320 320 321 325 330 332 333 334 336 337
314 314 316 317 317 316 318 316 316 319 318 316 315 318 314 312 313 314 313 311 311 310 308 308 308 309 313 318 320 320 321 320 319 320 320 320 319 320 321 323 325 326 328 331
317 318 316 317 317 316 318 318 314 313 316 321 315 314 313 313 315 315 314 313 312 310 310 308 309 309 315 318 318 318 319 319 319 319 319 319 320 320 320 321 322 323 323 323
312 314 314 315 316 316 316 315 314 318 321 324 318 316 316 315 317 315 314 313 311 311 311 311 310 309 310 314 315 318 318 317 318 318 318 318 319 320 320 320 322 322 322 324
313 311 311 310 313 313 312 316 317 318 319 322 322 316 316 317 316 316 313 312 310 310 312 311 311 312 312 311 312 315 317 317 316 318 318 318 319 319 320 320 321 322 321 322
312 311 313 311 308 309 308 310 312 312 313 317 319 317 315 313 312 313 313 312 312 310 311 311 313 313 313 313 313 312 314 316 316 315 317 318 319 320 321 321 319 321 319 319
312 309 312 310 306 307 312 314 314 312 313 315 317 312 313 313 313 313 312 311 310 311 311 312 312 311 312 313 314 314 314 313 314 316 315 317 319 318 320 318 317 318 319 319
310 306 310 310 309 307 310 311 313 311 313 313 314 313 313 313 313 313 312 310 309 309 309 309 310 312 313 313 313 313 312 313 314 314 314 315 315 315 315 315 316 318 317 316
306 310 307 307 307 308 310 312 311 312 312 315 313 313 312 313 312 311 310 310 310 309 308 308 308 308 311 310 309 310 310 311 311 312 312 313 314 315 315 315 317 316 315 313
305 311 310 312 311 311 312 311 311 315 316 315 314 315 312 311 309 310 309 309 309 308 308 308 308 308 307 307 307 307 308 308 308 309 310 311 311 314 315 316 314 314 312 312
306 307 307 311 309 309 310 312 315 315 315 315 316 313 310 309 309 308 308 308 308 308 308 308 307 307 306 306 306 306 306 307 307 307 308 308 309 311 312 313 313 312 312 312
304 305 305 308 308 310 311 314 314 315 315 314 313 312 310 309 307 307 307 307 307 307 307 307 306 306 306 307 306 306 306 306 306 306 307 307 308 309 310 311 312 312 312 311
303 306 312 309 308 309 309 315 315 313 311 310 309 308 308 307 306 306 304 305 306 306 306 306 306 307 307 307 307 307 306 305 305 305 305 306 307 308 309 310 310 311 311 311
305 309 313 310 310 307 307 314 310 310 313 308 307 307 307 307 309 308 307 307 307 307 307 308 307 306 306 307 307 307 305 305 305 305 305 305 305 307 309 310 310 311 311 311
312 312 313 312 312 309 308 310 309 311 309 305 306 306 306 308 308 307 307 307 308 307 307 307 305 305 305 305 305 305 305 304 304 304 305 305 305 305 306 308 309 310 310 310
311 305 307 313 309 308 308 308 309 305 305 305 305 306 306 306 307 307 307 307 305 305 304 303 303 302 302 302 302 303 303 303 303 304 304 304 304 304 305 305 308 309 309 309
311 309 306 308 306 305 307 305 304 304 304 305 306 306 306 307 307 306 306 305 305 302 301 301 301 300 300 300 300 300 301 302 303 304 305 304 304 304 306 306 308 308 308 308
312 308 303 308 307 304 304 304 304 303 304 304 305 306 306 306 306 305 305 304 302 300 299 299 297 297 298 298 298 299 299 300 301 303 303 304 304 305 305 306 308 308 307 308
307 307 306 305 303 304 304 303 303 304 304 304 304 304 305 305 305 303 303 303 299 298 297 297 297 298 299 299 301 301 298 298 299 301 302 302 304 305 305 306 308 308 308 308
304 305 302 302 301 302 303 304 304 304 303 304 303 304 304 304 302 302 302 301 298 296 297 298 299 300 301 302 299 300 299 297 300 302 301 304 305 306 307 308 308 308 309 309
Wind_Speed
3 3 6 8 6 4 2 2 5 8 14 3 11 17 10 10 7 11 13 8 9 12 18 21 21 26 32 32 34 37 37 37 34 35 30 29 32 32 35 38 32 33 27 30
4 6 9 5 4 5 5 5 8 6 10 5 9 16 9 5 7 8 9 11 10 8 10 9 12 19 28 34 36 34 36 35 34 30 28 23 31 32 31 32 30 30 22 24
6 6 5 4 4 4 5 4 5 7 5 3 5 13 8 5 5 8 9 8 7 9 11 9 7 13 20 29 34 35 35 34 31 32 26 17 21 16 30 31 29 27 24 22
6 5 5 2 6 5 5 5 5 5 3 5 4 16 12 6 8 8 11 8 9 9 7 7 7 7 15 28 27 27 27 30 31 30 29 27 23 15 24 31 29 30 32 35
9 3 3 5 6 5 7 2 4 4 5 3 4 3 11 4 6 7 9 12 10 8 8 10 9 16 22 23 27 26 27 27 27 27 28 30 22 19 16 22 24 25 24 25
5 1 4 6 2 2 1 1 3 2 1 8 11 9 20 16 7 5 5 6 8 9 8 10 18 24 21 25 26 25 29 28 26 25 22 21 19 19 20 18 18 21 24 27
1 4 1 1 1 1 4 4 6 4 2 10 4 5 18 12 9 6 8 6 8 8 8 9 9 11 18 24 31 30 28 28 25 22 19 16 13 12 15 17 16 16 18 20
3 3 4 2 3 4 2 4 4 9 9 15 6 6 7 5 5 3 3 5 4 8 7 8 9 10 20 24 31 35 33 26 24 22 18 14 11 10 11 12 13 13 14 13
3 4 3 1 2 4 1 2 2 1 4 5 5 6 9 4 6 7 7 7 5 7 7 8 7 4 1 14 21 21 29 25 23 20 17 16 15 14 13 12 12 12 12 13
3 2 2 2 3 2 3 4 1 1 5 5 4 4 5 7 10 11 13 9 9 5 6 6 7 7 8 8 4 22 25 26 25 21 20 20 18 17 15 12 13 12 11 12
3 3 3 1 4 6 1 1 3 2 3 4 4 5 3 4 5 9 9 9 9 8 5 2 5 11 14 11 0 8 15 18 18 22 24 22 21 19 17 15 13 14 11 10
3 4 3 7 3 5 4 5 5 3 4 2 3 6 4 4 7 5 11 12 9 8 8 7 4 3 5 7 7 4 10 20 21 19 22 23 22 22 22 20 16 15 12 11
6 0 2 7 5 4 2 2 3 2 1 6 3 6 4 4 7 6 6 12 13 14 11 9 6 6 4 4 3 3 5 13 20 25 22 24 25 22 24 23 20 17 16 13
7 3 6 6 7 4 5 4 5 6 3 8 11 20 16 8 6 8 8 10 13 13 12 11 11 8 6 10 13 11 8 6 10 16 25 26 28 28 28 25 21 20 18 15
3 4 5 6 7 5 9 10 9 8 12 9 17 15 13 6 6 6 7 11 14 15 16 16 13 9 5 11 13 12 10 11 11 9 13 25 33 30 28 26 24 22 20 17
2 2 2 4 9 8 9 8 9 9 4 6 10 15 4 4 5 7 9 13 16 17 19 16 14 13 7 11 15 17 20 20 17 16 12 13 16 22 27 27 26 23 20 17
2 4 2 4 3 6 7 5 5 3 4 5 7 5 5 6 10 10 13 15 18 18 16 16 15 14 16 16 17 21 21 23 24 22 22 21 20 16 21 24 25 25 23 21
5 4 3 3 5 3 3 2 3 5 10 9 9 6 6 9 12 14 13 17 19 17 16 14 13 19 29 31 29 28 26 24 22 22 21 21 23 23 23 27 30 29 27 25
5 4 1 2 2 7 3 2 1 3 9 3 3 7 13 14 14 17 9 10 15 15 16 21 29 30 34 38 41 34 30 26 24 24 24 24 24 23 26 27 31 33 33 29
4 2 3 2 2 4 4 2 3 1 9 3 7 10 14 13 14 17 16 18 23 23 28 27 30 31 39 40 40 37 32 30 31 31 31 28 28 28 28 31 29 30 33 34
2 0 4 3 3 7 2 5 2 1 4 8 8 13 14 13 13 23 25 25 23 27 27 29 42 36 38 40 41 37 37 38 45 43 38 34 31 31 31 29 31 31 33 30
5 4 3 2 1 7 2 3 1 3 5 10 14 16 18 20 23 22 23 24 27 27 30 37 29 33 42 41 39 39 37 43 44 40 39 36 33 30 28 31 32 31 29 29
1 4 3 6 5 2 2 4 5 3 12 15 17 19 20 20 23 24 27 27 21 26 24 34 28 30 39 38 39 33 43 41 40 37 33 34 30 30 26 28 28 25 29 25
2 2 2 3 1 3 5 2 3 9 13 16 17 18 20 23 26 26 24 24 23 23 24 31 26 22 24 36 37 41 43 40 37 33 35 31 30 30 27 24 24 26 25 23
2 2 1 4 4 7 1 10 12 16 16 17 18 18 21 23 24 27 26 22 23 23 25 29 19 19 23 37 36 39 42 35 31 31 28 22 31 28 26 29 25 23 25 28
3 3 3 4 2 4 7 12 16 16 20 19 19 21 20 22 26 26 23 23 21 21 25 20 22 22 26 23 24 25 20 26 24 18 19 25 20 23 24 23 22 29 29 27
Wind_Direction
12 72 222 223 202 217 256 259 257 267 279 243 272 276 266 265 281 280 285 278 263 256 262 270 254 231 217 222 210 210 207 212 208 200 196 198 198 205 217 223 225 223 230 245
15 255 227 206 180 210 229 257 271 278 261 167 271 275 269 243 246 244 268 292 278 274 281 277 243 218 214 211 215 212 212 211 210 202 202 202 199 204 206 220 224 222 223 235
179 232 97 163 222 213 240 201 247 235 290 279 269 280 296 257 244 282 271 241 279 279 284 281 271 238 218 209 206 209 210 213 211 208 203 206 198 208 213 226 230 232 234 240
232 251 227 231 256 156 267 208 230 273 320 266 145 288 274 254 239 240 263 285 275 289 297 285 281 247 235 215 206 204 203 208 210 209 201 201 187 172 206 216 231 242 238 248
232 192 212 223 229 159 236 328 291 273 264 296 187 260 271 241 253 258 259 259 264 264 272 277 265 251 238 227 211 202 198 194 193 198 202 200 194 201 201 212 218 225 238 256
241 192 169 207 179 211 359 12 302 88 150 261 249 218 273 267 231 245 247 270 307 305 284 254 256 264 250 231 219 206 192 189 188 189 193 200 194 184 185 197 206 211 212 219
305 228 157 119 163 166 71 45 322 309 258 271 6 234 248 309 285 249 265 290 303 292 299 292 250 236 229 216 213 205 198 186 183 180 184 191 198 193 188 186 192 199 206 213
177 317 164 189 202 208 174 160 185 262 274 291 326 246 249 255 282 86 32 297 343 337 315 302 284 232 221 209 198 193 196 187 181 176 175 179 186 194 201 200 196 198 209 213
153 271 299 107 120 117 98 182 183 265 221 265 235 292 309 353 31 8 333 339 344 324 344 343 339 43 145 196 189 190 184 184 186 179 175 178 182 188 195 196 192 187 191 199
197 280 271 336 61 58 171 145 346 272 276 249 267 266 243 342 360 344 334 324 304 309 30 21 4 5 72 103 142 189 193 190 189 188 188 190 196 199 202 203 201 197 194 191
120 129 283 335 183 199 165 171 149 218 245 298 319 293 321 316 276 320 330 330 311 294 309 29 28 21 32 54 186 251 227 215 215 207 203 200 206 213 215 219 216 211 208 198
169 155 230 237 259 245 183 208 144 137 275 272 266 266 248 280 306 344 336 335 333 313 293 303 335 95 10 38 34 308 262 253 249 243 233 223 221 218 219 219 214 210 215 214
181 169 351 344 358 355 111 183 140 128 116 241 248 259 226 334 335 341 326 337 341 338 346 343 317 320 331 287 252 249 267 260 257 246 245 235 221 221 220 219 216 217 222 218
128 145 171 204 229 183 263 224 202 176 215 262 242 276 283 299 313 323 331 330 329 331 330 331 333 342 308 292 297 288 271 249 259 245 233 228 230 226 222 223 222 217 205 199
109 202 198 245 253 248 257 261 258 217 240 242 276 268 281 274 310 302 311 330 327 325 323 320 320 319 325 331 340 343 328 329 319 283 253 244 238 234 230 227 219 207 202 201
21 252 178 270 261 263 269 248 249 248 243 262 266 284 275 332 333 319 310 313 309 306 306 309 308 305 294 301 308 307 304 307 313 311 297 285 269 235 223 215 205 202 206 209
144 147 104 266 324 305 278 216 192 249 243 244 283 272 342 323 326 316 308 299 292 291 290 293 297 298 286 285 279 281 282 286 286 285 285 286 287 269 242 221 216 215 214 223
146 136 149 270 341 256 251 183 207 239 268 271 258 284 304 304 300 297 285 277 281 280 277 275 285 289 289 288 284 282 274 267 265 266 264 265 267 269 267 253 240 232 230 227
163 153 168 205 225 288 304 199 248 337 288 314 314 321 315 312 312 294 265 273 280 277 280 283 280 277 279 277 279 272 267 257 251 253 252 248 246 248 253 246 243 246 241 230
125 27 157 155 193 245 238 160 1 266 283 40 347 307 304 317 304 296 304 295 287 282 278 279 274 285 279 271 264 260 258 260 260 260 255 247 238 236 234 241 242 246 243 231
88 120 193 203 227 284 258 317 312 311 301 303 301 301 299 292 282 291 296 296 290 295 288 291 290 276 274 273 267 259 260 260 261 257 253 244 236 231 233 233 237 237 238 230
177 156 211 165 219 282 16 7 89 264 296 300 307 303 298 294 292 296 301 299 299 298 296 290 285 279 275 269 263 259 258 257 257 252 242 237 233 229 232 233 231 223 222 224
210 190 196 180 222 256 333 229 273 279 300 300 301 300 296 298 301 304 300 297 299 300 294 292 287 284 280 272 260 256 255 253 247 246 236 229 234 227 229 227 221 206 208 216
172 125 179 17 38 310 296 112 336 310 300 300 296 301 308 305 306 305 306 302 307 303 302 300 293 285 283 278 266 254 249 244 241 234 234 230 229 224 224 230 217 205 200 201
230 70 203 267 316 327 118 341 319 309 304 308 310 312 310 305 312 311 308 307 305 304 303 300 294 290 289 290 286 270 238 227 226 228 213 231 228 211 215 219 214 200 206 203
174 178 161 241 201 229 280 310 313 317 317 316 316 312 309 313 311 312 311 309 307 303 304 304 304 300 302 316 326 340 183 198 209 196 203 219 193 200 203 205 203 208 206 212